Flag for China Weather past 2 weeks in Shenzhen, Guangdong, China

Now
88 °F

Passing clouds.


Feels Like: 105 °F
Forecast: 80 / 91 °F
Wind: 15 mph from South

Location: Shenzhen Airport

Current Time: Jul 13, 2014 at 4:26:19 PM

Latest Report: Jul 13, 2014 at 4:00 PM


Visibility: N/A

Pressure: 29.71 "Hg

Humidity: 79%

Dew point: 81 °F

Location of ShenzhenLocation

Historic Weather in Shenzhen — Graph

°F

Shenzhen temperature yesterday

Maximum temperature yesterday: 90 °F (at 1:00 PM)
Minimum temperature yesterday: 81 °F (at 9:00 AM)
Average temperature yesterday: 85 °F

Past Weeks' High & Low Weather Summary

 TemperatureHumidityPressure
High93 °F (Jul 8, 12:00 PM)94% (Jul 7, 5:00 AM)29.83 "Hg (Jul 7, 5:00 AM)
Low81 °F (Jul 1, 8:00 AM)59% (Jul 8, 12:00 PM)29.47 "Hg (Jul 8, 2:00 PM)
Average86 °F81%29.66 "Hg
* Reported Jun 28 3:00 PM — Jul 13 3:00 PM, Shenzhen, Weather by CustomWeather, © 2014

Note: Actual official high and low records may vary slightly from our data, if they occured in-between our weather recording intervals... More about our weather records

Advertising

Shenzhen weather history for previous 24 hours

 ConditionsComfort  
Time TempWeatherWind HumidityBarometerVisibility
3:00 PM
Jul 13
90 °FPassing clouds.13 mph75%29.74 "HgN/A
2:00 PM88 °FPassing clouds.13 mph79%29.74 "HgN/A
1:00 PM88 °FScattered clouds.10 mph79%29.77 "HgN/A
12:00 PM90 °FScattered clouds.15 mph79%29.77 "HgN/A
11:00 AM90 °FScattered clouds.8 mph79%29.77 "HgN/A
10:00 AM88 °FScattered clouds.8 mph79%29.80 "HgN/A
9:00 AM88 °FScattered clouds.8 mph79%29.80 "HgN/A
8:00 AM86 °FScattered clouds.3 mph84%29.77 "HgN/A
7:00 AM84 °FScattered clouds.3 mph89%29.77 "HgN/A
6:00 AM82 °FScattered clouds.10 mph84%29.77 "HgN/A
5:00 AM84 °FPassing clouds.3 mph89%29.77 "HgN/A
4:00 AM84 °FPassing clouds.3 mph89%29.74 "HgN/A
3:00 AM84 °FPassing clouds.6 mph89%29.74 "HgN/A
2:00 AM82 °FClear.6 mph89%29.77 "Hg10 mi
1:00 AM82 °FClear.6 mph94%29.77 "Hg10 mi
12:00 AM84 °FClear.8 mph89%29.77 "Hg10 mi
11:00 PM
Jul 12
82 °FPassing clouds.8 mph89%29.77 "HgN/A
10:00 PM84 °FThunderstorms. Passing clouds.6 mph84%29.77 "HgN/A
9:00 PM86 °FPassing clouds.8 mph79%29.77 "HgN/A
8:00 PM86 °FPassing clouds.13 mph79%29.71 "HgN/A
7:00 PM86 °FPassing clouds.13 mph79%29.71 "HgN/A
6:00 PM88 °FPassing clouds.13 mph75%29.68 "HgN/A
5:00 PM86 °FScattered clouds.8 mph84%29.71 "HgN/A
4:00 PM88 °FPassing clouds.15 mph75%29.71 "HgN/A
Weather by CustomWeather, © 2014

See weather overviewHow to use our weather pages